When you browse on this site, cookies collect data to enhance your experience and personalize the content and advertising you see.
Visit our Privacy Policy to learn more. By continuing to use the site, you agree to this use of cookies and data.
  • In Portugal
  • List of Countries
  • For 7 days
  • Water Temperature
  • Satellite Maps
  • Weather Map
  • Weather Widgets
  • user-avatar
    Login

    Hourly Weather Dziegiel

    Today, 19 February, Tuesday

    Time Temperature Precipitation Wind Pressure Humidity
    00:00 +3°C° 0 mm 2 mps 748 mmHg 86%
    01:00 +3°C° 0 mm 2 mps 747 mmHg 87%
    02:00 +3°C° 0 mm 2 mps 746 mmHg 87%
    03:00 +3°C° 0 mm 2 mps 746 mmHg 87%
    04:00 +3°C° 0 mm 2 mps 745 mmHg 87%
    05:00 +2°C° 0 mm 3 mps 745 mmHg 87%
    06:00 +2°C° 0 mm 3 mps 745 mmHg 86%
    07:00 +1°C° 0 mm 3 mps 744 mmHg 86%
    08:00 +3°C° 0 mm 4 mps 744 mmHg 83%
    09:00 +4°C° 0 mm 4 mps 744 mmHg 80%
    10:00 +5°C° 0 mm 4 mps 744 mmHg 78%
    11:00 +6°C° 0 mm 5 mps 744 mmHg 75%
    12:00 +7°C° 0 mm 5 mps 744 mmHg 73%
    13:00 +8°C° 0 mm 5 mps 744 mmHg 71%
    14:00 +7°C° 0.3 mm 5 mps 744 mmHg 74%
    15:00 +6°C° 0.3 mm 5 mps 744 mmHg 78%
    16:00 +6°C° 0.3 mm 4 mps 744 mmHg 81%
    17:00 +5°C° 0.1 mm 4 mps 744 mmHg 81%
    18:00 +5°C° 0.1 mm 4 mps 744 mmHg 80%
    19:00 +5°C° 0.1 mm 4 mps 744 mmHg 80%
    20:00 +5°C° 0.1 mm 5 mps 744 mmHg 81%
    21:00 +5°C° 0.1 mm 5 mps 744 mmHg 81%
    22:00 +5°C° 0.1 mm 5 mps 744 mmHg 82%
    23:00 +3°C° 0.1 mm 5 mps 744 mmHg 81%

    Tomorrow, 20 February, Wednesday

    Time Temperature Precipitation Wind Pressure Humidity
    00:00 +3°C° 0.1 mm 6 mps 744 mmHg 81%
    01:00 +3°C° 0.1 mm 6 mps 745 mmHg 80%
    02:00 +3°C° 0.1 mm 6 mps 745 mmHg 80%
    03:00 +2°C° 0.1 mm 6 mps 745 mmHg 80%
    04:00 +2°C° 0.1 mm 6 mps 745 mmHg 81%
    05:00 +2°C° 0.1 mm 6 mps 745 mmHg 80%
    06:00 +2°C° 0.1 mm 6 mps 745 mmHg 80%
    07:00 +2°C° 0.1 mm 7 mps 745 mmHg 80%
    08:00 +2°C° 0.1 mm 6 mps 746 mmHg 79%
    09:00 +2°C° 0.1 mm 6 mps 746 mmHg 78%
    10:00 +2°C° 0.1 mm 6 mps 747 mmHg 77%
    11:00 +2°C° 0 mm 6 mps 747 mmHg 76%
    12:00 +3°C° 0 mm 6 mps 748 mmHg 75%
    13:00 +3°C° 0 mm 6 mps 748 mmHg 74%
    14:00 +3°C° 0 mm 6 mps 749 mmHg 75%
    15:00 +3°C° 0 mm 5 mps 749 mmHg 75%
    16:00 +3°C° 0 mm 5 mps 749 mmHg 75%
    17:00 +3°C° 0 mm 5 mps 750 mmHg 78%
    18:00 +3°C° 0 mm 4 mps 750 mmHg 81%
    19:00 +3°C° 0 mm 4 mps 751 mmHg 84%
    20:00 +3°C° 0 mm 3 mps 751 mmHg 87%
    21:00 +2°C° 0 mm 3 mps 751 mmHg 90%
    22:00 +3°C° 0 mm 2 mps 751 mmHg 93%
    23:00 +3°C° 0.2 mm 2 mps 751 mmHg 94%

    Day after tomorrow, 21 February, Thursday

    Time Temperature Precipitation Wind Pressure Humidity
    00:00 +3°C° 0.2 mm 2 mps 751 mmHg 95%
    01:00 +3°C° 0.2 mm 2 mps 751 mmHg 96%
    02:00 +4°C° 0.3 mm 2 mps 751 mmHg 96%
    03:00 +4°C° 0.3 mm 2 mps 750 mmHg 96%
    04:00 +3°C° 0.3 mm 3 mps 750 mmHg 96%
    05:00 +4°C° 0.7 mm 3 mps 750 mmHg 95%
    06:00 +4°C° 0.7 mm 3 mps 750 mmHg 95%
    07:00 +4°C° 0.7 mm 3 mps 750 mmHg 94%
    08:00 +4°C° 0.2 mm 3 mps 750 mmHg 93%
    09:00 +4°C° 0.2 mm 3 mps 750 mmHg 92%
    10:00 +5°C° 0.2 mm 3 mps 749 mmHg 91%
    11:00 +5°C° 0.5 mm 4 mps 749 mmHg 91%
    12:00 +5°C° 0.5 mm 4 mps 749 mmHg 90%
    13:00 +5°C° 0.5 mm 4 mps 749 mmHg 90%
    14:00 +5°C° 0.1 mm 4 mps 749 mmHg 90%
    15:00 +5°C° 0.1 mm 4 mps 749 mmHg 91%
    16:00 +5°C° 0.1 mm 4 mps 749 mmHg 91%
    17:00 +5°C° 0.3 mm 4 mps 750 mmHg 91%
    18:00 +5°C° 0.3 mm 5 mps 750 mmHg 91%
    19:00 +5°C° 0.3 mm 5 mps 750 mmHg 92%
    20:00 +5°C° 0.4 mm 5 mps 751 mmHg 91%
    21:00 +4°C° 0.4 mm 4 mps 751 mmHg 90%
    22:00 +3°C° 0.4 mm 4 mps 752 mmHg 89%
    23:00 +1°C° 0 mm 4 mps 753 mmHg 86%

    22 February, Friday

    Time Temperature Precipitation Wind Pressure Humidity
    00:00 0°C° 0 mm 4 mps 754 mmHg 84%
    01:00 -1°C° 0 mm 4 mps 755 mmHg 81%
    02:00 -1°C° 0 mm 4 mps 756 mmHg 80%
    03:00 -2°C° 0 mm 4 mps 757 mmHg 78%
    04:00 -2°C° 0 mm 4 mps 758 mmHg 76%
    05:00 -3°C° 0 mm 4 mps 759 mmHg 75%
    06:00 -2°C° 0 mm 3 mps 760 mmHg 74%
    07:00 -2°C° 0 mm 3 mps 761 mmHg 73%
    08:00 -2°C° 0 mm 3 mps 762 mmHg 69%
    09:00 -1°C° 0 mm 3 mps 762 mmHg 65%
    10:00 -1°C° 0 mm 3 mps 763 mmHg 61%
    11:00 0°C° 0 mm 3 mps 764 mmHg 58%
    12:00 0°C° 0 mm 3 mps 764 mmHg 55%
    13:00 +1°C° 0 mm 3 mps 764 mmHg 52%
    14:00 +1°C° 0 mm 2 mps 765 mmHg 52%
    15:00 +1°C° 0 mm 2 mps 765 mmHg 52%
    16:00 +1°C° 0 mm 2 mps 765 mmHg 52%
    17:00 -1°C° 0 mm 2 mps 766 mmHg 57%
    18:00 -2°C° 0 mm 2 mps 766 mmHg 61%
    19:00 -1°C° 0 mm 1 mps 766 mmHg 66%
    20:00 -1°C° 0 mm 1 mps 766 mmHg 66%
    21:00 -1°C° 0 mm 1 mps 766 mmHg 65%
    22:00 -1°C° 0 mm 1 mps 766 mmHg 65%
    23:00 -2°C° 0 mm 0 mps 766 mmHg 64%

    23 February, Saturday

    Time Temperature Precipitation Wind Pressure Humidity
    00:00 -2°C° 0 mm 0 mps 766 mmHg 63%
    01:00 -2°C° 0 mm 0 mps 766 mmHg 62%
    02:00 -2°C° 0 mm 0 mps 766 mmHg 62%
    03:00 -2°C° 0 mm 0 mps 766 mmHg 61%
    04:00 -2°C° 0 mm 0 mps 766 mmHg 61%
    05:00 -2°C° 0 mm 0 mps 766 mmHg 61%
    06:00 -2°C° 0 mm 0 mps 766 mmHg 60%
    07:00 -2°C° 0 mm 0 mps 766 mmHg 60%
    08:00 0°C° 0 mm 1 mps 766 mmHg 56%
    09:00 +1°C° 0 mm 1 mps 766 mmHg 52%
    10:00 +2°C° 0 mm 1 mps 766 mmHg 49%
    11:00 +3°C° 0 mm 1 mps 765 mmHg 48%
    12:00 +2°C° 0 mm 2 mps 765 mmHg 47%
    13:00 +3°C° 0 mm 2 mps 765 mmHg 47%
    14:00 +3°C° 0 mm 2 mps 764 mmHg 51%
    15:00 +2°C° 0 mm 2 mps 764 mmHg 55%
    16:00 +2°C° 0 mm 2 mps 764 mmHg 59%
    17:00 +2°C° 0 mm 2 mps 763 mmHg 62%
    18:00 +1°C° 0 mm 2 mps 763 mmHg 66%
    19:00 +1°C° 0 mm 2 mps 763 mmHg 70%
    20:00 +2°C° 0 mm 1 mps 763 mmHg 75%
    21:00 +1°C° 0 mm 1 mps 763 mmHg 81%
    22:00 +1°C° 0 mm 1 mps 763 mmHg 86%
    23:00 +1°C° 0 mm 1 mps 763 mmHg 88%

    24 February, Sunday

    Time Temperature Precipitation Wind Pressure Humidity
    00:00 +1°C° 0 mm 1 mps 763 mmHg 90%
    01:00 +1°C° 0 mm 0 mps 763 mmHg 92%
    02:00 +1°C° 0 mm 0 mps 763 mmHg 93%
    03:00 +1°C° 0 mm 0 mps 763 mmHg 93%
    04:00 +1°C° 0 mm 0 mps 763 mmHg 94%
    05:00 +1°C° 0 mm 0 mps 763 mmHg 95%
    06:00 +2°C° 0 mm 1 mps 763 mmHg 95%
    07:00 +2°C° 0 mm 1 mps 764 mmHg 95%
    08:00 +3°C° 0 mm 1 mps 764 mmHg 93%
    09:00 +3°C° 0 mm 1 mps 764 mmHg 91%
    10:00 +4°C° 0 mm 1 mps 765 mmHg 88%
    11:00 +5°C° 0 mm 1 mps 765 mmHg 86%
    12:00 +5°C° 0 mm 2 mps 765 mmHg 83%
    13:00 +5°C° 0 mm 2 mps 765 mmHg 80%
    14:00 +5°C° 0 mm 2 mps 764 mmHg 81%
    15:00 +5°C° 0 mm 2 mps 764 mmHg 82%
    16:00 +5°C° 0 mm 2 mps 764 mmHg 82%
    17:00 +5°C° 0 mm 2 mps 764 mmHg 85%
    18:00 +4°C° 0 mm 2 mps 764 mmHg 88%
    19:00 +4°C° 0 mm 2 mps 764 mmHg 91%
    20:00 +3°C° 0 mm 2 mps 764 mmHg 92%
    21:00 +3°C° 0 mm 2 mps 763 mmHg 94%
    22:00 +3°C° 0 mm 2 mps 763 mmHg 95%
    23:00 +3°C° 0 mm 2 mps 763 mmHg 95%
    Show more